Date,TemperatureHighF,TemperatureAvgF,TemperatureLowF,DewpointHighF,DewpointAvgF,DewpointLowF,HumidityHigh,HumidityAvg,HumidityLow,PressureMaxIn,PressureMinIn,WindSpeedMaxMPH,WindSpeedAvgMPH,GustSpeedMaxMPH,PrecipitationSumIn
2013-1-1,38,16,-1,15,-2,-16,46,44,39,23.24,23.12,14,2,14,0.00
2013-1-2,38,21,10,15,2,-7,45,43,39,23.21,23.15,13,4,13,0.00
2013-1-3,28,21,12,7,2,-5,45,43,41,23.27,23.15,19,6,19,0.00
2013-1-4,42,18,2,18,0,-15,45,43,39,23.27,23.18,9,1,10,0.00
2013-1-5,52,20,0,26,0,-16,45,43,36,23.36,23.24,9,1,9,0.00
2013-1-6,49,24,8,24,4,-9,45,42,37,23.30,23.00,10,1,10,0.00
2013-1-7,39,23,9,16,4,-8,45,42,39,23.09,22.97,13,2,14,0.00
2013-1-8,50,28,7,25,7,-10,45,41,37,23.24,23.03,15,3,15,0.00
2013-1-9,49,34,21,24,12,2,43,40,37,23.33,23.15,13,2,13,0.00
2013-1-10,30,22,19,10,3,1,44,43,41,23.15,22.74,16,1,16,0.00
2013-1-11,34,17,0,12,-1,-16,45,43,40,22.94,22.77,17,4,17,0.00
2013-1-12,36,10,-7,14,-8,-23,45,43,40,22.94,22.86,12,1,15,0.00
2013-1-13,37,11,-7,14,-7,-22,45,44,40,22.97,22.86,15,1,15,0.00
2013-1-14,23,7,-4,3,-10,-20,45,45,43,23.09,22.92,13,2,13,0.00
2013-1-15,27,12,-8,6,-5,-24,45,44,42,23.27,23.06,18,3,18,0.00
2013-1-16,42,21,4,19,1,-12,45,43,39,23.30,23.21,10,2,11,0.00
2013-1-17,36,25,14,14,6,-4,45,42,40,23.33,23.24,11,2,12,0.00
2013-1-18,40,22,7,17,3,-10,45,43,39,23.30,23.21,9,1,9,0.00
2013-1-19,46,23,5,22,4,-11,45,42,38,23.30,23.18,11,2,11,0.00
2013-1-20,24,19,15,4,0,-3,44,43,42,17.72,17.72,0,0,0,0.00
2013-1-21,47,25,8,22,5,-9,45,42,37,17.72,17.72,13,2,13,0.00
2013-1-22,56,32,9,29,10,-8,45,41,35,17.72,17.72,10,1,10,0.00
2013-1-23,59,34,14,31,12,-4,45,40,35,17.72,17.72,9,1,9,0.00
2013-1-24,51,38,30,26,16,9,45,41,37,17.72,17.72,15,1,15,0.00
2013-1-25,54,41,36,28,21,17,52,44,36,17.72,17.72,7,0,8,0.00
2013-1-26,42,39,37,28,24,18,60,55,45,17.72,17.72,10,1,10,0.00
2013-1-27,43,37,32,30,24,18,62,59,49,17.72,17.72,18,3,18,0.00
2013-1-28,41,29,17,20,11,0,59,46,39,17.72,17.72,13,1,14,0.00
2013-1-29,34,22,10,12,2,-7,46,43,40,17.72,17.72,16,4,17,0.00
2013-1-30,49,27,8,23,7,-9,46,42,37,17.72,17.72,13,2,13,0.00
2013-1-31,51,30,14,25,10,-2,48,42,37,17.72,17.72,10,1,10,0.00